STARLINK-1272, 45386

Orbit data source: Space-Track

STARLINK-1272, 45386 is a payload satellite owned by SpaceX/Seattle (US) in LEO that was launched on Wed, 18 Mar 2020 UTC via an FALCON 9 launch vehicle from the Air Force Eastern Test Range (AFETR). Payload-class satellites include a variety of spacecraft equipped with specific instruments for various scientific and technological missions. These include communications satellites like Starlink; space stations such as the ISS; scientific satellites like the Hubble; Earth observation satellites from companies like Planet Labs, Umbra, and HawkEye 360; GPS; miniature CubeSats for education and research; and military/defense satellites.

Loading next visibility...
Identifier
45386, 2020-019AC
Orbit
LEO
Country
Flag of USUS
Related business
Manufacturer
SpaceX/Seattle
Mission
Partially operational Commercial Communications
Bus & Motor
STARLINK, Unknown motor
Mass
260 kg wet, ~248 kg dry
Launch date (UTC)
2020-03-18 (6 years ago)
Launch vehicle
FALCON 9
Launch site
Air Force Eastern Test Range (AFETR)
Object type
Payload
Rocket body
Debris
Shape & HBR
Box + 1 Pan, 10.1 m
Radar Cross Section
13.562 m², Large (>1 m²)

Expand to show TLE details & history
Last TLE update: 8 hours ago

TLE from 8 hours ago
0 STARLINK-1272
1 45386U 20019AC  26062.62951462  .00055120  00000-0  81008-3 0  9992
2 45386  53.0447 139.1156 0002241 134.1456 225.9739 15.54962669329587
Epoch: 2026-03-03T15:06Z
TLE epoch observation values (Epoch: 2026-03-03T15:06:30.063Z)
Latitude
0.00003°
Longitude
111.08453°
Altitude
404.214 km
Speed
7.669 km/s
True Right ascension
09h 16m 27s
True Declination
0° 00' 00"
Sunlit
Object was in full shadow at epoch
Visualization orbit readout
Latitude
Unknown
Longitude
Unknown
Altitude
Unknown
Speed
Unknown
Apparent Right ascension
Unknown
Apparent Declination
Unknown
Sunlit
N/A
Visualization observer readout
Local Sidereal Time
03:00:17
Azimuth
Unknown
Elevation
Unknown
Doppler factor
Unknown
Orbital elements
Apogee altitude
404.059 km
Perigee altitude
401.02 km
Semi-major axis
6,780.676 km
Eccentricity
0.00022
Inclination
53.0447°
RAAN
139.1156°
Arg. of periapsis
134.1456°
True anomaly
225.95544°
Mean anomaly
225.9739°
Eccentric anomaly
225.96467°
Mean motion
3.88717 °/min
Orbital period
92.61 mins
BSTAR
0.00081008
Loading maneuver chart data...
Computing Atmospheric mass density...
Loading historical data...
Loading historical data...
Loading historical data...
Loading historical data...
Loading historical data...
Loading historical data...
Loading historical data...

Documentation

Showing up to 5 results
|